Time,TemperatureF,DewpointF,PressureIn,WindDirection,WindDirectionDegrees,WindSpeedMPH,WindSpeedGustMPH,Humidity,HourlyPrecipIn,Conditions,Clouds,dailyrainin,SoftwareType,DateUTC
2013-06-19 00:04:00,62.6,62.6,29.96,WNW,298,0.0,4.0,100,0.00,,,0.00,Wunderground v.1.15,2013-06-19 05:04:00,
2013-06-19 00:14:00,62.9,62.9,29.96,WNW,298,0.0,4.0,100,0.00,,,0.00,Wunderground v.1.15,2013-06-19 05:14:00,
2013-06-19 00:25:00,62.8,62.8,29.96,WNW,298,0.0,4.0,100,0.00,,,0.00,Wunderground v.1.15,2013-06-19 05:25:00,
2013-06-19 00:35:00,62.8,62.8,29.96,WNW,298,0.0,4.0,100,0.00,,,0.00,Wunderground v.1.15,2013-06-19 05:35:00,
2013-06-19 00:44:00,62.6,62.6,29.96,WNW,298,0.0,4.0,100,0.00,,,0.00,Wunderground v.1.15,2013-06-19 05:44:00,
2013-06-19 00:54:00,62.4,62.4,29.96,WNW,298,0.0,4.0,100,0.00,,,0.00,Wunderground v.1.15,2013-06-19 05:54:00,
2013-06-19 01:05:00,62.2,62.2,29.96,WNW,298,0.0,4.0,100,0.00,,,0.00,Wunderground v.1.15,2013-06-19 06:05:00,
2013-06-19 01:10:00,61.9,61.9,29.96,WNW,298,0.0,4.0,100,0.00,,,0.00,Wunderground v.1.15,2013-06-19 06:10:00,
2013-06-19 01:19:00,61.6,61.6,29.97,WNW,298,0.0,4.0,100,0.00,,,0.00,Wunderground v.1.15,2013-06-19 06:19:00,
2013-06-19 01:29:00,61.3,61.3,29.97,WNW,298,0.0,4.0,100,0.00,,,0.00,Wunderground v.1.15,2013-06-19 06:29:00,
2013-06-19 01:35:00,61.2,61.2,29.98,WNW,298,0.0,4.0,100,0.00,,,0.00,Wunderground v.1.15,2013-06-19 06:35:00,
2013-06-19 01:44:00,61.0,61.0,29.98,WNW,298,0.0,4.0,100,0.00,,,0.00,Wunderground v.1.15,2013-06-19 06:44:00,
2013-06-19 01:54:00,60.8,60.8,29.98,WNW,298,0.0,4.0,100,0.00,,,0.00,Wunderground v.1.15,2013-06-19 06:54:00,
2013-06-19 02:05:00,60.7,60.7,29.98,WNW,298,0.0,4.0,100,0.00,,,0.00,Wunderground v.1.15,2013-06-19 07:05:00,
2013-06-19 02:15:00,60.5,60.5,29.98,WNW,298,0.0,4.0,100,0.00,,,0.00,Wunderground v.1.15,2013-06-19 07:15:00,
2013-06-19 02:24:00,60.5,60.5,29.97,WNW,298,0.0,4.0,100,0.00,,,0.00,Wunderground v.1.15,2013-06-19 07:24:00,
2013-06-19 02:34:00,60.1,60.1,29.98,WNW,298,0.0,4.0,100,0.00,,,0.00,Wunderground v.1.15,2013-06-19 07:34:00,
2013-06-19 02:45:00,60.3,60.3,29.98,WNW,298,0.0,4.0,100,0.00,,,0.00,Wunderground v.1.15,2013-06-19 07:45:00,
2013-06-19 02:54:00,60.1,60.1,29.98,WNW,298,0.0,4.0,100,0.00,,,0.00,Wunderground v.1.15,2013-06-19 07:54:00,
2013-06-19 03:04:00,59.9,59.9,29.98,WNW,298,0.0,4.0,100,0.00,,,0.00,Wunderground v.1.15,2013-06-19 08:04:00,
2013-06-19 03:14:00,59.6,59.6,29.98,WNW,298,0.0,4.0,100,0.00,,,0.00,Wunderground v.1.15,2013-06-19 08:14:00,
2013-06-19 03:20:00,59.4,59.4,29.98,WNW,298,0.0,4.0,100,0.00,,,0.00,Wunderground v.1.15,2013-06-19 08:20:00,
2013-06-19 03:29:00,59.3,59.3,29.98,WNW,298,0.0,4.0,100,0.00,,,0.00,Wunderground v.1.15,2013-06-19 08:29:00,
2013-06-19 03:39:00,59.7,59.7,29.98,WNW,298,0.0,4.0,100,0.00,,,0.00,Wunderground v.1.15,2013-06-19 08:39:00,
2013-06-19 03:49:00,59.6,59.6,29.98,WNW,298,0.0,4.0,100,0.00,,,0.00,Wunderground v.1.15,2013-06-19 08:49:00,
2013-06-19 03:55:00,59.4,59.4,29.98,WNW,298,0.0,4.0,100,0.00,,,0.00,Wunderground v.1.15,2013-06-19 08:55:00,
2013-06-19 04:05:00,59.3,59.3,29.98,WNW,298,0.0,4.0,100,0.00,,,0.00,Wunderground v.1.15,2013-06-19 09:05:00,
2013-06-19 04:14:00,59.1,59.1,29.99,WNW,298,0.0,4.0,100,0.00,,,0.00,Wunderground v.1.15,2013-06-19 09:14:00,
2013-06-19 04:24:00,59.1,59.1,29.99,WNW,298,0.0,4.0,100,0.00,,,0.00,Wunderground v.1.15,2013-06-19 09:24:00,
2013-06-19 04:35:00,59.0,59.0,29.99,WNW,298,0.0,4.0,100,0.00,,,0.00,Wunderground v.1.15,2013-06-19 09:35:00,
2013-06-19 04:45:00,58.8,58.8,29.99,WNW,298,0.0,4.0,100,0.00,,,0.00,Wunderground v.1.15,2013-06-19 09:45:00,
2013-06-19 04:54:00,59.0,59.0,29.99,WNW,298,0.0,4.0,100,0.00,,,0.00,Wunderground v.1.15,2013-06-19 09:54:00,
2013-06-19 05:04:00,58.8,58.8,29.99,WNW,298,0.0,4.0,100,0.00,,,0.00,Wunderground v.1.15,2013-06-19 10:04:00,
2013-06-19 05:15:00,58.7,58.7,29.99,WNW,298,0.0,4.0,100,0.00,,,0.00,Wunderground v.1.15,2013-06-19 10:15:00,
2013-06-19 05:24:00,58.9,58.9,29.99,WNW,298,0.0,4.0,100,0.00,,,0.00,Wunderground v.1.15,2013-06-19 10:24:00,
2013-06-19 05:34:00,58.6,58.6,29.99,WNW,298,0.0,4.0,100,0.00,,,0.00,Wunderground v.1.15,2013-06-19 10:34:00,
2013-06-19 05:44:00,58.4,58.4,30.00,WNW,298,0.0,4.0,100,0.00,,,0.00,Wunderground v.1.15,2013-06-19 10:44:00,
2013-06-19 05:55:00,58.3,58.3,30.00,WNW,298,0.0,4.0,100,0.00,,,0.00,Wunderground v.1.15,2013-06-19 10:55:00,
2013-06-19 06:04:00,58.6,58.6,30.00,WNW,298,0.0,4.0,100,0.00,,,0.00,Wunderground v.1.15,2013-06-19 11:04:00,
2013-06-19 06:14:00,58.7,58.7,30.00,WNW,298,0.0,4.0,100,0.00,,,0.00,Wunderground v.1.15,2013-06-19 11:14:00,
2013-06-19 06:25:00,59.1,59.1,30.00,WNW,298,0.0,4.0,100,0.00,,,0.00,Wunderground v.1.15,2013-06-19 11:25:00,
2013-06-19 06:35:00,59.4,59.4,30.00,WNW,298,0.0,4.0,100,0.00,,,0.01,Wunderground v.1.15,2013-06-19 11:35:00,
2013-06-19 06:44:00,60.7,60.7,30.01,WNW,298,0.0,4.0,100,0.00,,,0.01,Wunderground v.1.15,2013-06-19 11:44:00,
2013-06-19 06:54:00,61.9,61.9,30.01,WNW,298,0.0,4.0,100,0.00,,,0.01,Wunderground v.1.15,2013-06-19 11:54:00,
2013-06-19 07:05:00,62.4,62.4,30.01,North,349,0.0,4.0,100,0.00,,,0.01,Wunderground v.1.15,2013-06-19 12:05:00,
2013-06-19 07:15:00,63.6,63.6,30.01,North,350,0.0,4.0,100,0.00,,,0.01,Wunderground v.1.15,2013-06-19 12:15:00,
2013-06-19 07:24:00,65.5,65.5,30.02,North,350,0.0,4.0,100,0.00,,,0.01,Wunderground v.1.15,2013-06-19 12:24:00,
2013-06-19 07:34:00,66.0,66.0,30.02,North,350,0.0,4.0,100,0.00,,,0.01,Wunderground v.1.15,2013-06-19 12:34:00,
2013-06-19 07:45:00,66.9,66.9,30.02,North,349,0.0,4.0,100,0.00,,,0.01,Wunderground v.1.15,2013-06-19 12:45:00,
2013-06-19 07:54:00,67.6,67.6,30.01,ENE,77,0.0,4.0,100,0.00,,,0.01,Wunderground v.1.15,2013-06-19 12:54:00,
2013-06-19 08:04:00,68.5,68.5,30.01,ENE,77,0.0,4.0,100,0.00,,,0.01,Wunderground v.1.15,2013-06-19 13:04:00,
2013-06-19 08:14:00,69.9,69.9,30.01,ENE,76,0.0,4.0,100,0.00,,,0.01,Wunderground v.1.15,2013-06-19 13:14:00,
2013-06-19 08:25:00,71.3,71.3,30.01,ESE,104,0.0,4.0,100,0.00,,,0.01,Wunderground v.1.15,2013-06-19 13:25:00,
2013-06-19 08:34:00,71.3,71.3,30.01,ESE,108,0.0,4.0,100,0.00,,,0.01,Wunderground v.1.15,2013-06-19 13:34:00,
2013-06-19 08:44:00,72.0,72.0,30.01,ENE,60,0.0,4.0,100,0.00,,,0.01,Wunderground v.1.15,2013-06-19 13:44:00,
2013-06-19 08:55:00,72.4,72.4,30.01,NNE,16,0.0,4.0,100,0.00,,,0.01,Wunderground v.1.15,2013-06-19 13:55:00,
2013-06-19 09:05:00,72.9,72.9,30.02,East,82,0.0,4.0,100,0.00,,,0.01,Wunderground v.1.15,2013-06-19 14:05:00,
2013-06-19 09:14:00,73.2,73.2,30.02,NE,41,0.0,4.0,100,0.00,,,0.01,Wunderground v.1.15,2013-06-19 14:14:00,
2013-06-19 09:24:00,73.7,73.7,30.02,NNE,27,0.0,4.0,100,0.00,,,0.01,Wunderground v.1.15,2013-06-19 14:24:00,
2013-06-19 09:35:00,75.0,75.0,30.02,ESE,112,0.0,4.0,100,0.00,,,0.01,Wunderground v.1.15,2013-06-19 14:35:00,
2013-06-19 09:45:00,74.8,74.8,30.02,NNW,329,1.0,4.0,100,0.00,,,0.01,Wunderground v.1.15,2013-06-19 14:45:00,
2013-06-19 09:54:00,75.2,75.2,30.02,NNE,15,1.0,4.0,100,0.00,,,0.01,Wunderground v.1.15,2013-06-19 14:54:00,
2013-06-19 10:04:00,76.4,76.4,30.02,NE,45,0.0,4.0,100,0.00,,,0.01,Wunderground v.1.15,2013-06-19 15:04:00,
2013-06-19 10:15:00,77.3,76.7,30.02,SE,146,0.0,4.0,98,0.00,,,0.01,Wunderground v.1.15,2013-06-19 15:15:00,
2013-06-19 10:24:00,78.7,77.8,30.02,SE,138,0.0,4.0,97,0.00,,,0.01,Wunderground v.1.15,2013-06-19 15:24:00,
2013-06-19 10:34:00,78.5,76.6,30.02,SE,142,1.0,4.0,94,0.00,,,0.01,Wunderground v.1.15,2013-06-19 15:34:00,
2013-06-19 10:44:00,78.5,76.0,30.02,SSW,193,1.0,4.0,92,0.00,,,0.01,Wunderground v.1.15,2013-06-19 15:44:00,
2013-06-19 10:55:00,79.4,76.2,30.02,NNE,18,1.0,4.0,90,0.00,,,0.01,Wunderground v.1.15,2013-06-19 15:55:00,
2013-06-19 11:04:00,80.9,77.7,30.02,ESE,105,0.0,4.0,90,0.00,,,0.01,Wunderground v.1.15,2013-06-19 16:04:00,
2013-06-19 11:14:00,81.7,77.5,30.02,SSE,166,0.0,4.0,87,0.00,,,0.01,Wunderground v.1.15,2013-06-19 16:14:00,
2013-06-19 11:24:00,81.3,75.6,30.02,ESE,108,1.0,4.0,83,0.00,,,0.01,Wunderground v.1.15,2013-06-19 16:24:00,
2013-06-19 11:30:00,81.7,76.0,30.02,West,279,1.0,1.0,83,0.00,,,0.01,Wunderground v.1.15,2013-06-19 16:30:00,
2013-06-19 11:39:00,82.4,75.6,30.01,SE,128,1.0,4.0,80,0.00,,,0.01,Wunderground v.1.15,2013-06-19 16:39:00,
2013-06-19 11:49:00,83.5,75.1,30.01,SW,227,1.0,1.0,76,0.00,,,0.01,Wunderground v.1.15,2013-06-19 16:49:00,
2013-06-19 11:54:00,83.8,74.2,30.01,East,91,0.0,4.0,73,0.00,,,0.01,Wunderground v.1.15,2013-06-19 16:54:00,
2013-06-19 12:04:00,84.3,72.1,30.01,ESE,106,1.0,4.0,67,0.00,,,0.01,Wunderground v.1.15,2013-06-19 17:04:00,
2013-06-19 12:14:00,84.8,72.6,30.01,SW,229,1.0,4.0,67,0.00,,,0.01,Wunderground v.1.15,2013-06-19 17:14:00,
2013-06-19 12:25:00,84.5,71.4,30.00,NNE,19,1.0,4.0,65,0.00,,,0.01,Wunderground v.1.15,2013-06-19 17:25:00,
2013-06-19 12:34:00,84.5,71.4,30.00,ENE,75,0.0,4.0,65,0.00,,,0.01,Wunderground v.1.15,2013-06-19 17:34:00,
2013-06-19 12:44:00,84.4,70.4,30.00,SE,133,1.0,4.0,63,0.00,,,0.01,Wunderground v.1.15,2013-06-19 17:44:00,
2013-06-19 12:54:00,85.0,71.5,30.00,South,181,1.0,4.0,64,0.00,,,0.01,Wunderground v.1.15,2013-06-19 17:54:00,
2013-06-19 13:00:00,85.1,72.0,29.99,NNW,332,1.0,4.0,65,0.00,,,0.01,Wunderground v.1.15,2013-06-19 18:00:00,
2013-06-19 13:09:00,84.4,71.8,29.99,NNW,330,1.0,4.0,66,0.00,,,0.01,Wunderground v.1.15,2013-06-19 18:09:00,
2013-06-19 13:19:00,84.6,71.5,29.99,West,263,0.0,4.0,65,0.00,,,0.01,Wunderground v.1.15,2013-06-19 18:19:00,
2013-06-19 13:29:00,85.6,72.9,29.99,North,1,0.0,4.0,66,0.00,,,0.01,Wunderground v.1.15,2013-06-19 18:29:00,
2013-06-19 13:35:00,85.3,71.3,29.99,NNW,346,0.0,4.0,63,0.00,,,0.01,Wunderground v.1.15,2013-06-19 18:35:00,
2013-06-19 13:45:00,85.0,71.0,29.99,NNW,345,0.0,4.0,63,0.00,,,0.01,Wunderground v.1.15,2013-06-19 18:45:00,
2013-06-19 13:54:00,86.7,72.6,29.99,East,97,0.0,4.0,63,0.00,,,0.01,Wunderground v.1.15,2013-06-19 18:54:00,
2013-06-19 14:04:00,86.6,71.1,29.98,West,264,0.0,4.0,60,0.00,,,0.01,Wunderground v.1.15,2013-06-19 19:04:00,
2013-06-19 14:15:00,85.9,71.4,29.98,NNW,335,0.0,4.0,62,0.00,,,0.01,Wunderground v.1.15,2013-06-19 19:15:00,
2013-06-19 14:25:00,86.1,70.1,29.98,ENE,73,1.0,4.0,59,0.00,,,0.01,Wunderground v.1.15,2013-06-19 19:25:00,
2013-06-19 14:34:00,86.2,71.2,29.98,NNW,348,1.0,4.0,61,0.00,,,0.01,Wunderground v.1.15,2013-06-19 19:34:00,
2013-06-19 14:44:00,86.1,69.6,29.97,NNE,31,2.0,2.0,58,0.00,,,0.01,Wunderground v.1.15,2013-06-19 19:44:00,
2013-06-19 14:55:00,86.5,70.0,29.97,East,98,1.0,3.0,58,0.00,,,0.01,Wunderground v.1.15,2013-06-19 19:55:00,
2013-06-19 15:04:00,87.2,71.1,29.98,ESE,109,1.0,4.0,59,0.00,,,0.01,Wunderground v.1.15,2013-06-19 20:04:00,
2013-06-19 15:14:00,86.8,70.2,29.98,WNW,287,0.0,4.0,58,0.00,,,0.01,Wunderground v.1.15,2013-06-19 20:14:00,
2013-06-19 15:24:00,87.2,70.6,29.97,ESE,117,1.0,4.0,58,0.00,,,0.01,Wunderground v.1.15,2013-06-19 20:24:00,
2013-06-19 15:35:00,87.2,70.1,29.97,NW,318,1.0,4.0,57,0.00,,,0.01,Wunderground v.1.15,2013-06-19 20:35:00,
2013-06-19 15:44:00,86.7,69.1,29.97,NNE,18,1.0,4.0,56,0.00,,,0.01,Wunderground v.1.15,2013-06-19 20:44:00,
2013-06-19 15:54:00,86.1,68.6,29.97,NNE,15,2.0,4.0,56,0.00,,,0.01,Wunderground v.1.15,2013-06-19 20:54:00,
2013-06-19 16:05:00,86.0,68.5,29.97,North,4,1.0,4.0,56,0.00,,,0.01,Wunderground v.1.15,2013-06-19 21:05:00,
2013-06-19 16:15:00,86.1,69.1,29.97,NNW,342,1.0,3.0,57,0.00,,,0.01,Wunderground v.1.15,2013-06-19 21:15:00,
2013-06-19 16:24:00,86.2,70.2,29.97,ESE,121,1.0,4.0,59,0.00,,,0.01,Wunderground v.1.15,2013-06-19 21:24:00,
2013-06-19 16:34:00,85.7,69.7,29.97,North,350,1.0,4.0,59,0.00,,,0.01,Wunderground v.1.15,2013-06-19 21:34:00,
2013-06-19 16:45:00,86.3,69.3,29.97,ESE,114,0.0,4.0,57,0.00,,,0.01,Wunderground v.1.15,2013-06-19 21:45:00,
2013-06-19 16:55:00,86.0,69.5,29.97,NNE,17,1.0,4.0,58,0.00,,,0.01,Wunderground v.1.15,2013-06-19 21:55:00,
2013-06-19 17:04:00,86.1,70.1,29.96,ENE,71,0.0,3.0,59,0.00,,,0.01,Wunderground v.1.15,2013-06-19 22:04:00,
2013-06-19 17:14:00,86.0,71.0,29.96,NE,34,2.0,4.0,61,0.00,,,0.01,Wunderground v.1.15,2013-06-19 22:14:00,
2013-06-19 17:25:00,86.2,71.2,29.95,NNE,22,0.0,4.0,61,0.00,,,0.01,Wunderground v.1.15,2013-06-19 22:25:00,
2013-06-19 17:34:00,85.9,70.4,29.95,SE,132,1.0,4.0,60,0.00,,,0.01,Wunderground v.1.15,2013-06-19 22:34:00,
2013-06-19 17:44:00,85.4,70.4,29.95,ESE,115,1.0,4.0,61,0.00,,,0.01,Wunderground v.1.15,2013-06-19 22:44:00,
2013-06-19 17:54:00,85.3,69.3,29.95,East,79,0.0,4.0,59,0.00,,,0.01,Wunderground v.1.15,2013-06-19 22:54:00,
2013-06-19 18:05:00,85.3,70.3,29.95,North,360,0.0,4.0,61,0.00,,,0.01,Wunderground v.1.15,2013-06-19 23:05:00,
2013-06-19 18:14:00,84.6,68.7,29.95,NNE,24,1.0,4.0,59,0.00,,,0.01,Wunderground v.1.15,2013-06-19 23:14:00,
2013-06-19 18:24:00,84.8,68.9,29.94,NNE,29,0.0,4.0,59,0.00,,,0.01,Wunderground v.1.15,2013-06-19 23:24:00,
2013-06-19 18:35:00,84.6,69.2,29.95,NE,43,0.0,4.0,60,0.00,,,0.01,Wunderground v.1.15,2013-06-19 23:35:00,
2013-06-19 18:45:00,83.9,69.5,29.95,NNE,32,0.0,4.0,62,0.00,,,0.01,Wunderground v.1.15,2013-06-19 23:45:00,
2013-06-19 18:54:00,83.7,70.7,29.95,NW,315,0.0,4.0,65,0.00,,,0.01,Wunderground v.1.15,2013-06-19 23:54:00,
2013-06-19 19:04:00,82.7,70.6,29.95,NNW,330,0.0,4.0,67,0.00,,,0.01,Wunderground v.1.15,2013-06-20 00:04:00,
2013-06-19 19:15:00,82.3,71.1,29.95,NNW,338,0.0,4.0,69,0.00,,,0.01,Wunderground v.1.15,2013-06-20 00:15:00,
2013-06-19 19:25:00,82.2,71.0,29.95,North,3,0.0,4.0,69,0.00,,,0.01,Wunderground v.1.15,2013-06-20 00:25:00,
2013-06-19 19:34:00,81.9,71.2,29.94,NE,39,0.0,4.0,70,0.00,,,0.01,Wunderground v.1.15,2013-06-20 00:34:00,
2013-06-19 19:44:00,81.3,70.6,29.95,North,11,0.0,4.0,70,0.00,,,0.01,Wunderground v.1.15,2013-06-20 00:44:00,
2013-06-19 19:55:00,80.6,70.3,29.95,NNE,25,0.0,4.0,71,0.00,,,0.01,Wunderground v.1.15,2013-06-20 00:55:00,
2013-06-19 20:04:00,79.9,70.5,29.95,NNE,25,0.0,4.0,73,0.00,,,0.01,Wunderground v.1.15,2013-06-20 01:04:00,
2013-06-19 20:14:00,79.0,70.4,29.95,NNW,345,0.0,4.0,75,0.00,,,0.01,Wunderground v.1.15,2013-06-20 01:14:00,
2013-06-19 20:24:00,77.9,69.7,29.95,ENE,73,0.0,4.0,76,0.00,,,0.01,Wunderground v.1.15,2013-06-20 01:24:00,
2013-06-19 20:35:00,77.2,69.8,29.95,NNE,15,0.0,4.0,78,0.00,,,0.01,Wunderground v.1.15,2013-06-20 01:35:00,
2013-06-19 20:44:00,76.7,69.7,29.95,North,11,0.0,4.0,79,0.00,,,0.01,Wunderground v.1.15,2013-06-20 01:44:00,
2013-06-19 20:54:00,75.7,69.1,29.95,ENE,70,0.0,4.0,80,0.00,,,0.01,Wunderground v.1.15,2013-06-20 01:54:00,
2013-06-19 21:04:00,74.8,68.9,29.95,ENE,71,0.0,4.0,82,0.00,,,0.01,Wunderground v.1.15,2013-06-20 02:04:00,
2013-06-19 21:10:00,74.7,69.2,29.95,ENE,70,0.0,4.0,83,0.00,,,0.01,Wunderground v.1.15,2013-06-20 02:10:00,
2013-06-19 21:19:00,74.3,69.1,29.95,ENE,70,0.0,4.0,84,0.00,,,0.01,Wunderground v.1.15,2013-06-20 02:19:00,
2013-06-19 21:29:00,73.8,69.0,29.96,ENE,70,0.0,4.0,85,0.00,,,0.01,Wunderground v.1.15,2013-06-20 02:29:00,
2013-06-19 21:39:00,73.3,68.5,29.96,ENE,66,0.0,4.0,85,0.00,,,0.01,Wunderground v.1.15,2013-06-20 02:39:00,
2013-06-19 21:45:00,73.1,68.7,29.96,ENE,67,0.0,4.0,86,0.00,,,0.01,Wunderground v.1.15,2013-06-20 02:45:00,
2013-06-19 21:55:00,73.5,69.1,29.96,North,4,0.0,4.0,86,0.00,,,0.01,Wunderground v.1.15,2013-06-20 02:55:00,
2013-06-19 22:04:00,73.2,68.8,29.97,North,1,0.0,4.0,86,0.00,,,0.01,Wunderground v.1.15,2013-06-20 03:04:00,
2013-06-19 22:14:00,73.0,68.6,29.97,NE,43,0.0,4.0,86,0.00,,,0.01,Wunderground v.1.15,2013-06-20 03:14:00,
2013-06-19 22:25:00,72.7,68.6,29.97,NE,43,0.0,4.0,87,0.00,,,0.01,Wunderground v.1.15,2013-06-20 03:25:00,
2013-06-19 22:35:00,72.3,68.2,29.97,NE,43,0.0,4.0,87,0.00,,,0.01,Wunderground v.1.15,2013-06-20 03:35:00,
2013-06-19 22:44:00,72.4,68.3,29.98,NNE,18,0.0,4.0,87,0.00,,,0.01,Wunderground v.1.15,2013-06-20 03:44:00,
2013-06-19 22:54:00,72.6,68.5,29.98,NNE,30,0.0,4.0,87,0.00,,,0.01,Wunderground v.1.15,2013-06-20 03:54:00,
2013-06-19 23:05:00,72.3,68.5,29.98,NE,47,0.0,4.0,88,0.00,,,0.01,Wunderground v.1.15,2013-06-20 04:05:00,
2013-06-19 23:09:00,72.1,68.3,29.98,NE,46,0.0,4.0,88,0.00,,,0.01,Wunderground v.1.15,2013-06-20 04:09:00,
2013-06-19 23:19:00,71.9,68.2,29.99,NNE,30,0.0,4.0,88,0.00,,,0.01,Wunderground v.1.15,2013-06-20 04:19:00,
2013-06-19 23:24:00,71.6,67.9,29.98,NNE,30,0.0,4.0,88,0.00,,,0.01,Wunderground v.1.15,2013-06-20 04:24:00,
2013-06-19 23:34:00,71.0,67.6,29.99,NNE,30,0.0,4.0,89,0.00,,,0.01,Wunderground v.1.15,2013-06-20 04:34:00,
2013-06-19 23:40:00,70.7,67.3,29.99,NNE,30,0.0,4.0,89,0.00,,,0.01,Wunderground v.1.15,2013-06-20 04:40:00,
2013-06-19 23:49:00,70.3,66.9,29.99,SE,129,0.0,4.0,89,0.00,,,0.01,Wunderground v.1.15,2013-06-20 04:49:00,
2013-06-19 23:59:00,70.3,67.2,29.99,SE,129,0.0,4.0,90,0.00,,,0.01,Wunderground v.1.15,2013-06-20 04:59:00,